Flag Weather past 2 weeks in Chester, England, United Kingdom

Now
59 °F

Smoke.


Feels Like: 57 °F
Forecast: 57 / 67 °F
Wind: 12 mph from Southeast

Location: Hawarden

Current Time: Oct 31, 2014 at 6:22:09 AM

Latest Report: Oct 31, 2014 at 5:00 AM


Visibility: 4 mi

Pressure: 29.91 "Hg

Humidity: 90%

Dew point: 56 °F

Location of ChesterLocation

Historic Weather in Chester — Graph

°F

Chester temperature yesterday

Maximum temperature yesterday: 65 °F (at 1:00 PM)
Minimum temperature yesterday: 51 °F (at 12:00 AM)
Average temperature yesterday: 58 °F

Past Weeks' High & Low Weather Summary

 TemperatureHumidityPressure
High68 °F (Oct 18, 3:00 PM)98% (Oct 16, 11:00 PM)30.25 "Hg (Oct 16, 11:00 PM)
Low36 °F (Oct 29, 7:00 AM)57% (Oct 21, 7:00 PM)29.38 "Hg (Oct 21, 5:00 AM)
Average56 °F81%29.87 "Hg
* Reported Oct 16 6:00 AM — Oct 31 5:00 AM, Chester, Weather by CustomWeather, © 2014

Note: Actual official high and low records may vary slightly from our data, if they occured in-between our weather recording intervals... More about our weather records

Advertising

Chester weather history for previous 24 hours

 ConditionsComfort  
Time TempWeatherWind HumidityBarometerVisibility
5:00 AM
Oct 31
59 °FSmoke.12 mph90%29.91 "Hg4 mi
4:00 AM59 °FSmoke.9 mph91%29.91 "Hg4 mi
3:00 AM58 °FSmoke.6 mph91%29.93 "Hg4 mi
2:00 AM59 °FSmoke.9 mph90%29.94 "Hg4 mi
1:00 AM59 °FSmoke.5 mph90%29.95 "Hg4 mi
12:00 AM59 °FSmoke.8 mph90%29.95 "Hg4 mi
11:00 PM
Oct 30
59 °FSmoke.7 mph90%29.96 "Hg6 mi
10:00 PM59 °FSmoke.7 mph92%29.95 "Hg4 mi
9:00 PM60 °FSmoke.9 mph91%29.96 "Hg5 mi
8:00 PM60 °FSmoke.9 mph90%29.96 "Hg5 mi
7:00 PM60 °FCool.9 mph89%29.96 "Hg6 mi
6:00 PM61 °FCool.8 mph88%29.96 "Hg12 mi
5:00 PM61 °FCool.8 mph88%29.96 "Hg12 mi
4:00 PM62 °FCool.6 mph87%29.97 "Hg6 mi
3:00 PM63 °FMild.7 mph86%29.96 "Hg22 mi
2:00 PM64 °FMild.10 mph81%29.97 "Hg16 mi
1:00 PM65 °FMild.9 mph76%29.97 "Hg25 mi
12:00 PM64 °FMild.10 mph80%29.97 "Hg22 mi
11:00 AM62 °FCool.12 mph86%29.97 "Hg12 mi
10:00 AM59 °FSmoke.10 mph92%29.96 "Hg5 mi
9:00 AM57 °FFog.7 mph95%29.96 "Hg2 mi
8:00 AM55 °FFog.6 mph97%29.95 "Hg2 mi
7:00 AM54 °FFog.6 mph98%29.95 "Hg2 mi
6:00 AM54 °FFog.9 mph98%29.94 "Hg2 mi
Weather by CustomWeather, © 2014

See weather overviewHow to use our weather pages